| time (UTC) | temp F | wind direction | speed knots | gust knots | rain 1hr in | rain 24hr in | rain mn in | humidity % | barometer mb |
| 20260505073037 | 56 | 157 | 2.6 | 5.2 | 0.00 | 0.00 | 0.00 | 78 | 1012.5 |
| 20260505071608 | 58 | 106 | 2.6 | 4.3 | 0.00 | 0.00 | 0.00 | 75 | 1012.4 |
| 20260505070032 | 59 | 94 | 1.7 | 3.5 | 0.00 | 0.00 | 0.00 | 73 | 1012.4 |
| 20260505064532 | 60 | 122 | 1.7 | 4.3 | 0.00 | 0.00 | 0.00 | 71 | 1012.4 |
| 20260505063034 | 60 | 182 | 0.9 | 5.2 | 0.00 | 0.00 | 0.00 | 70 | 1012.4 |
| 20260505060036 | 62 | 105 | 1.7 | 3.5 | 0.00 | 0.00 | 0.00 | 65 | 1012.4 |
| 20260505054536 | 63 | 92 | 2.6 | 5.2 | 0.00 | 0.00 | 0.00 | 64 | 1012.4 |
| 20260505053031 | 64 | 259 | 3.5 | 10.4 | 0.00 | 0.00 | 0.00 | 63 | 1012.3 |
| 20260505051537 | 64 | 230 | 1.7 | 5.2 | 0.00 | 0.00 | 0.00 | 61 | 1012.3 |
| 20260505041536 | 65 | 175 | 1.7 | 4.3 | 0.00 | 0.00 | 0.00 | 53 | 1011.8 |
| 20260505040048 | 66 | 226 | 1.7 | 6.1 | 0.00 | 0.00 | 0.00 | 50 | 1011.5 |
| 20260505034650 | 67 | 194 | 2.6 | 6.1 | 0.00 | 0.00 | 0.00 | 48 | 1011.4 |
| 20260505033035 | 67 | 265 | 1.7 | 9.6 | 0.00 | 0.00 | 0.00 | 47 | 1011.2 |
| 20260505031529 | 68 | 239 | 2.6 | 7.8 | 0.00 | 0.00 | 0.00 | 45 | 1010.9 |
| 20260505030111 | 68 | 215 | 2.6 | 8.7 | 0.00 | 0.00 | 0.00 | 45 | 1010.8 |
| 20260505024649 | 69 | 262 | 2.6 | 9.6 | 0.00 | 0.00 | 0.00 | 43 | 1010.7 |
| 20260505023036 | 71 | 239 | 3.5 | 8.7 | 0.00 | 0.00 | 0.00 | 42 | 1010.6 |
| 20260505020035 | 73 | 302 | 1.7 | 5.2 | 0.00 | 0.00 | 0.00 | 40 | 1010.6 |
| 20260505014535 | 74 | 264 | 2.6 | 8.7 | 0.00 | 0.00 | 0.00 | 38 | 1010.5 |
| 20260505013031 | 74 | 280 | 3.5 | 13.0 | 0.00 | 0.00 | 0.00 | 37 | 1010.4 |
| 20260505011609 | 75 | 273 | 3.5 | 7.8 | 0.00 | 0.00 | 0.00 | 36 | 1010.4 |
| 20260505010035 | 76 | 294 | 3.5 | 9.6 | 0.00 | 0.00 | 0.00 | 34 | 1010.4 |
| 20260505003111 | 78 | 231 | 3.5 | 13.0 | 0.00 | 0.00 | 0.00 | 33 | 1010.3 |
| 20260505001536 | 78 | 264 | 2.6 | 14.8 | 0.00 | 0.00 | 0.00 | 34 | 1010.2 |
| 20260505000038 | 78 | 286 | 3.5 | 11.3 | 0.00 | 0.00 | 0.00 | 33 | 1010.2 |
| 20260504234534 | 79 | 281 | 3.5 | 11.3 | 0.00 | 0.00 | 0.00 | 33 | 1010.1 |
| 20260504231530 | 79 | 279 | 4.3 | 9.6 | 0.00 | 0.00 | 0.00 | 34 | 1010.2 |
| 20260504230142 | 79 | 268 | 3.5 | 10.4 | 0.00 | 0.00 | 0.00 | 34 | 1010.2 |
| 20260504224531 | 79 | 267 | 3.5 | 9.6 | 0.00 | 0.00 | 0.00 | 33 | 1010.4 |
| 20260504223109 | 79 | 237 | 4.3 | 14.8 | 0.00 | 0.00 | 0.00 | 32 | 1010.5 |
| 20260504221536 | 79 | 234 | 4.3 | 12.2 | 0.00 | 0.00 | 0.00 | 32 | 1010.5 |
| 20260504220035 | 80 | 276 | 4.3 | 11.3 | 0.00 | 0.00 | 0.00 | 32 | 1010.5 |
| 20260504214535 | 80 | 283 | 4.3 | 12.2 | 0.00 | 0.00 | 0.00 | 33 | 1010.6 |
| 20260504211537 | 79 | 289 | 5.2 | 14.8 | 0.00 | 0.00 | 0.00 | 33 | 1010.6 |
| 20260504210037 | 79 | 293 | 4.3 | 9.6 | 0.00 | 0.00 | 0.00 | 33 | 1010.7 |
| 20260504204536 | 80 | 287 | 4.3 | 10.4 | 0.00 | 0.00 | 0.00 | 33 | 1010.8 |
| 20260504203032 | 79 | 310 | 3.5 | 9.6 | 0.00 | 0.00 | 0.00 | 36 | 1010.9 |
| 20260504201534 | 78 | 314 | 5.2 | 10.4 | 0.00 | 0.00 | 0.00 | 38 | 1011.0 |
| 20260504200036 | 78 | 326 | 5.2 | 8.7 | 0.00 | 0.00 | 0.00 | 40 | 1011.0 |
| 20260504194533 | 78 | 11 | 5.2 | 9.6 | 0.00 | 0.00 | 0.00 | 41 | 1010.9 |
| 20260504193111 | 78 | 10 | 5.2 | 10.4 | 0.00 | 0.00 | 0.00 | 40 | 1011.0 |
| 20260504191534 | 78 | 346 | 4.3 | 7.0 | 0.00 | 0.00 | 0.00 | 41 | 1011.2 |
| 20260504190037 | 77 | 357 | 4.3 | 7.8 | 0.00 | 0.00 | 0.00 | 43 | 1011.2 |
| 20260504184533 | 76 | 12 | 5.2 | 7.8 | 0.00 | 0.00 | 0.00 | 44 | 1011.3 |
| 20260504183032 | 76 | 11 | 5.2 | 7.8 | 0.00 | 0.00 | 0.00 | 45 | 1011.3 |
| 20260504181535 | 76 | 9 | 3.5 | 6.1 | 0.00 | 0.00 | 0.00 | 45 | 1011.3 |
| 20260504174531 | 74 | 338 | 3.5 | 7.8 | 0.00 | 0.00 | 0.00 | 44 | 1011.4 |
| 20260504173035 | 74 | 4 | 3.5 | 6.1 | 0.00 | 0.00 | 0.00 | 44 | 1011.3 |
| 20260504171535 | 73 | 356 | 2.6 | 5.2 | 0.00 | 0.00 | 0.00 | 46 | 1011.3 |
| 20260504170112 | 71 | 340 | 1.7 | 5.2 | 0.00 | 0.00 | 0.00 | 49 | 1011.4 |
| 20260504130109 | 51 | 157 | 2.6 | 3.5 | 0.00 | 0.00 | 0.00 | 76 | 1010.5 |
| 20260504120143 | 53 | 160 | 2.6 | 3.5 | 0.00 | 0.00 | 0.00 | 72 | 1010.5 |
| 20260504081530 | 55 | 159 | 2.6 | 3.5 | 0.00 | 0.00 | 0.00 | 64 | 1011.2 |